Regional Weather Roundup
Issued by NWS

Home | Current Version | Previous Version | Text Only | Print | Product List | Glossary Off
Versions: 1 2 3 4 5 6 7 8 9 10 11 12 13 14 15 16 17 18 19 20 21 22 23 24 25 26 27 28 29 30 31 32 33 34 35 36 37 38 39 40 41 42 43 44 45 46 47 48 49 50

000
ASUS44 KMEG 220200
RWRTN
TENNESSEE HOURLY STATE WEATHER ROUNDUP
NATIONAL WEATHER SERVICE MEMPHIS TN
800 PM CST SUN DEC 21 2014

TNZ002-004-019-021-049-052-054-088>092-220300-
WEST TENNESSEE

CITY           SKY/WX    TMP DP  RH WIND       PRES   REMARKS
MEMPHIS INTL   PTCLDY    48  33  56 SE5       29.98F
NWS MEMPHIS      N/A     41 N/A N/A MISG        N/A
JACKSON        CLEAR     36  30  79 CALM      30.02S
DYERSBURG      MOCLDY    45  25  45 NE5       30.02F
UNION CITY     CLEAR     39  30  70 E5        29.99F
PARIS          CLEAR     37  28  70 E5        30.01F WCI  34
LEXINGTON      CLEAR     37  34  87 SE3       30.01F
SAVANNAH       CLEAR     37  36  93 CALM      30.02F
$$

TNZ008-025-027-028-033-062-065-066-220300-
NORTH MIDDLE TENNESSEE

CITY           SKY/WX    TMP DP  RH WIND       PRES   REMARKS
NASHVILLE      MOCLDY    49  37  63 E8        30.05F
CLARKSVILLE    CLEAR     38  30  73 E6        30.05F WCI  33
COOKEVILLE     CLOUDY    46  39  76 CALM      30.07S
CROSSVILLE     CLOUDY    44  36  73 SE3       30.08S
$$

TNZ061-075-076-078-094-096-097-220300-
SOUTH MIDDLE TENNESSEE

CITY           SKY/WX    TMP DP  RH WIND       PRES   REMARKS
TULLAHOMA      CLOUDY    46  39  76 SE7       30.07F
WINCHESTER     CLOUDY    46  43  87 SE3       30.08S
SHELBYVILLE    CLOUDY    48  41  76 SE7       30.07F
$$

TNZ017-018-042-046-047-220300-
NORTHEAST TENNESSEE

CITY           SKY/WX    TMP DP  RH WIND       PRES   REMARKS
TRI CITIES     MOCLDY    42  34  73 CALM      30.11S
ELIZABETHTON   CLEAR     39  34  81 E5        30.12R
$$

TNZ012-013-036-069-073-074-220300-
CENTRAL EAST TENNESSEE

CITY           SKY/WX    TMP DP  RH WIND       PRES   REMARKS
KNOXVILLE      CLOUDY    43  35  73 CALM      30.10S
OAK RIDGE      CLOUDY    45  36  70 CALM      30.11S
GATLINBURG     CLEAR     37  34  87 CALM      30.10S
$$

TNZ083-085-099-220300-
SOUTHEAST TENNESSEE

CITY           SKY/WX    TMP DP  RH WIND       PRES   REMARKS
CHATTANOOGA    CLOUDY    47  38  71 CALM      30.11S
$$

SKY/WX REPORTED AS FAIR MEANS FEW OR NO CLOUDS BELOW
12 THOUSAND FEET.




USA.gov is the U.S. government's official web portal to all federal, state and local government web resources and services.